When you browse on this site, cookies collect data to enhance your experience and personalize the content and advertising you see.
Visit our Privacy Policy to learn more. By continuing to use the site, you agree to this use of cookies and data.

Stündliche Wetter Edmonton

Heute, 13 August, Donnerstag

Zeit Temperatur Niederschläge Wind Luftdruck Luftfeuchtigkeit
00:00 +8°C° 0 mm 2 m/S 699 mmHg 82%
01:00 +8°C° 0 mm 3 m/S 699 mmHg 83%
02:00 +8°C° 0 mm 3 m/S 699 mmHg 82%
03:00 +8°C° 0 mm 3 m/S 699 mmHg 81%
04:00 +7°C° 0 mm 2 m/S 699 mmHg 80%
05:00 +9°C° 0 mm 3 m/S 699 mmHg 77%
06:00 +10°C° 0 mm 3 m/S 700 mmHg 74%
07:00 +12°C° 0 mm 4 m/S 700 mmHg 72%
08:00 +13°C° 0 mm 4 m/S 700 mmHg 66%
09:00 +15°C° 0 mm 5 m/S 700 mmHg 61%
10:00 +16°C° 0 mm 6 m/S 700 mmHg 56%
11:00 +17°C° 0 mm 5 m/S 700 mmHg 55%
12:00 +19°C° 0 mm 5 m/S 700 mmHg 54%
13:00 +19°C° 0 mm 5 m/S 700 mmHg 53%
14:00 +19°C° 0.1 mm 4 m/S 700 mmHg 54%
15:00 +19°C° 0.1 mm 4 m/S 700 mmHg 55%
16:00 +20°C° 0.1 mm 3 m/S 700 mmHg 55%
17:00 +18°C° 0.1 mm 3 m/S 700 mmHg 62%
18:00 +16°C° 0.1 mm 3 m/S 700 mmHg 68%
19:00 +14°C° 0.1 mm 2 m/S 700 mmHg 75%
20:00 +13°C° 0.2 mm 3 m/S 700 mmHg 77%
21:00 +13°C° 0.2 mm 3 m/S 700 mmHg 80%
22:00 +12°C° 0.2 mm 3 m/S 700 mmHg 83%
23:00 +12°C° 0 mm 3 m/S 701 mmHg 84%

Morgen, 14 August, Freitag

Zeit Temperatur Niederschläge Wind Luftdruck Luftfeuchtigkeit
00:00 +11°C° 0 mm 3 m/S 701 mmHg 84%
01:00 +10°C° 0 mm 3 m/S 701 mmHg 85%
02:00 +10°C° 0 mm 3 m/S 701 mmHg 84%
03:00 +9°C° 0 mm 3 m/S 701 mmHg 84%
04:00 +9°C° 0 mm 3 m/S 701 mmHg 83%
05:00 +10°C° 0 mm 3 m/S 701 mmHg 81%
06:00 +12°C° 0 mm 3 m/S 701 mmHg 78%
07:00 +13°C° 0 mm 4 m/S 701 mmHg 76%
08:00 +15°C° 0 mm 4 m/S 701 mmHg 69%
09:00 +16°C° 0 mm 5 m/S 702 mmHg 62%
10:00 +19°C° 0 mm 5 m/S 702 mmHg 55%
11:00 +19°C° 0.1 mm 5 m/S 702 mmHg 55%
12:00 +19°C° 0.1 mm 4 m/S 702 mmHg 55%
13:00 +20°C° 0.1 mm 4 m/S 701 mmHg 56%
14:00 +20°C° 0 mm 4 m/S 701 mmHg 56%
15:00 +20°C° 0 mm 4 m/S 701 mmHg 55%
16:00 +20°C° 0 mm 4 m/S 701 mmHg 55%
17:00 +19°C° 0 mm 3 m/S 701 mmHg 58%
18:00 +17°C° 0 mm 2 m/S 701 mmHg 60%
19:00 +15°C° 0 mm 2 m/S 701 mmHg 63%
20:00 +14°C° 0 mm 1 m/S 701 mmHg 66%
21:00 +14°C° 0 mm 1 m/S 701 mmHg 69%
22:00 +13°C° 0 mm 1 m/S 701 mmHg 71%
23:00 +13°C° 0.1 mm 2 m/S 702 mmHg 71%

übermorgen, 15 August, Samstag

Zeit Temperatur Niederschläge Wind Luftdruck Luftfeuchtigkeit
00:00 +12°C° 0.1 mm 3 m/S 702 mmHg 71%
01:00 +13°C° 0.1 mm 4 m/S 702 mmHg 72%
02:00 +12°C° 0.5 mm 4 m/S 703 mmHg 79%
03:00 +12°C° 0.5 mm 4 m/S 703 mmHg 86%
04:00 +11°C° 0.5 mm 4 m/S 703 mmHg 93%
05:00 +12°C° 0.1 mm 4 m/S 704 mmHg 91%
06:00 +12°C° 0.1 mm 4 m/S 704 mmHg 90%
07:00 +13°C° 0.1 mm 4 m/S 705 mmHg 89%
08:00 +14°C° 0.1 mm 5 m/S 705 mmHg 83%
09:00 +16°C° 0.1 mm 5 m/S 705 mmHg 77%
10:00 +17°C° 0.1 mm 5 m/S 706 mmHg 72%
11:00 +17°C° 0.2 mm 5 m/S 706 mmHg 69%
12:00 +19°C° 0.2 mm 4 m/S 706 mmHg 67%
13:00 +19°C° 0.2 mm 4 m/S 706 mmHg 65%
14:00 +20°C° 0 mm 4 m/S 706 mmHg 63%
15:00 +20°C° 0 mm 3 m/S 706 mmHg 61%
16:00 +20°C° 0 mm 3 m/S 706 mmHg 59%
17:00 +19°C° 0 mm 2 m/S 706 mmHg 64%
18:00 +18°C° 0 mm 1 m/S 706 mmHg 68%
19:00 +14°C° 0 mm 0 m/S 706 mmHg 73%
20:00 +15°C° 0 mm 1 m/S 706 mmHg 75%
21:00 +14°C° 0 mm 1 m/S 707 mmHg 77%
22:00 +14°C° 0 mm 1 m/S 707 mmHg 79%
23:00 +14°C° 0 mm 1 m/S 707 mmHg 78%

16 August, Sonntag

Zeit Temperatur Niederschläge Wind Luftdruck Luftfeuchtigkeit
00:00 +14°C° 0 mm 1 m/S 707 mmHg 77%
01:00 +14°C° 0 mm 1 m/S 707 mmHg 77%
02:00 +14°C° 0 mm 1 m/S 707 mmHg 80%
03:00 +13°C° 0 mm 1 m/S 707 mmHg 84%
04:00 +12°C° 0 mm 1 m/S 707 mmHg 87%
05:00 +14°C° 0 mm 1 m/S 708 mmHg 85%
06:00 +15°C° 0 mm 1 m/S 708 mmHg 83%
07:00 +16°C° 0 mm 1 m/S 708 mmHg 80%
08:00 +19°C° 0 mm 1 m/S 709 mmHg 75%
09:00 +20°C° 0 mm 1 m/S 709 mmHg 70%
10:00 +22°C° 0 mm 1 m/S 709 mmHg 65%
11:00 +21°C° 0 mm 2 m/S 709 mmHg 64%
12:00 +23°C° 0 mm 2 m/S 709 mmHg 62%
13:00 +24°C° 0 mm 2 m/S 709 mmHg 61%
14:00 +24°C° 0 mm 2 m/S 709 mmHg 63%
15:00 +24°C° 0 mm 3 m/S 709 mmHg 65%
16:00 +22°C° 0 mm 3 m/S 709 mmHg 67%
17:00 +21°C° 0 mm 3 m/S 709 mmHg 75%
18:00 +19°C° 0 mm 3 m/S 709 mmHg 82%
19:00 +17°C° 0 mm 3 m/S 708 mmHg 89%
20:00 +16°C° 0 mm 3 m/S 709 mmHg 91%
21:00 +14°C° 0 mm 3 m/S 709 mmHg 92%
22:00 +13°C° 0 mm 3 m/S 709 mmHg 93%
23:00 +13°C° 0 mm 3 m/S 709 mmHg 93%

17 August, Montag

Zeit Temperatur Niederschläge Wind Luftdruck Luftfeuchtigkeit
00:00 +12°C° 0 mm 3 m/S 709 mmHg 93%
01:00 +12°C° 0 mm 3 m/S 709 mmHg 92%
02:00 +12°C° 0 mm 3 m/S 709 mmHg 92%
03:00 +11°C° 0 mm 3 m/S 709 mmHg 92%
04:00 +11°C° 0 mm 3 m/S 709 mmHg 91%
05:00 +12°C° 0 mm 4 m/S 709 mmHg 87%
06:00 +14°C° 0 mm 4 m/S 709 mmHg 83%
07:00 +15°C° 0 mm 4 m/S 709 mmHg 78%
08:00 +18°C° 0 mm 4 m/S 709 mmHg 74%
09:00 +20°C° 0 mm 4 m/S 709 mmHg 70%
10:00 +21°C° 0 mm 5 m/S 708 mmHg 66%
11:00 +22°C° 0 mm 5 m/S 708 mmHg 64%
12:00 +23°C° 0 mm 5 m/S 708 mmHg 63%
13:00 +25°C° 0 mm 5 m/S 708 mmHg 61%
14:00 +25°C° 0 mm 5 m/S 707 mmHg 62%
15:00 +26°C° 0 mm 4 m/S 707 mmHg 63%
16:00 +26°C° 0 mm 4 m/S 706 mmHg 64%
17:00 +23°C° 0 mm 4 m/S 706 mmHg 69%
18:00 +21°C° 0 mm 4 m/S 705 mmHg 75%
19:00 +19°C° 0 mm 4 m/S 705 mmHg 81%
20:00 +19°C° 0 mm 4 m/S 704 mmHg 81%
21:00 +18°C° 0 mm 4 m/S 704 mmHg 81%
22:00 +17°C° 0 mm 4 m/S 704 mmHg 81%
23:00 +16°C° 0 mm 3 m/S 704 mmHg 80%

18 August, Dienstag

Zeit Temperatur Niederschläge Wind Luftdruck Luftfeuchtigkeit
00:00 +16°C° 0 mm 3 m/S 703 mmHg 80%
01:00 +15°C° 0 mm 2 m/S 703 mmHg 79%
02:00 +15°C° 0 mm 2 m/S 703 mmHg 79%
03:00 +15°C° 0 mm 2 m/S 703 mmHg 78%
04:00 +14°C° 0 mm 2 m/S 703 mmHg 78%
05:00 +15°C° 0 mm 2 m/S 703 mmHg 76%
06:00 +16°C° 0 mm 1 m/S 703 mmHg 74%
07:00 +18°C° 0 mm 1 m/S 703 mmHg 72%
08:00 +20°C° 0 mm 1 m/S 703 mmHg 70%
09:00 +21°C° 0 mm 1 m/S 703 mmHg 67%
10:00 +23°C° 0 mm 2 m/S 703 mmHg 65%
11:00 +24°C° 0 mm 1 m/S 703 mmHg 62%
12:00 +26°C° 0 mm 1 m/S 703 mmHg 59%
13:00 +25°C° 0 mm 0 m/S 703 mmHg 56%
14:00 +25°C° 0 mm 0 m/S 703 mmHg 56%
15:00 +25°C° 0 mm 0 m/S 703 mmHg 56%
16:00 +26°C° 0 mm 0 m/S 702 mmHg 56%
17:00 +26°C° 0 mm 1 m/S 702 mmHg 63%
18:00 +24°C° 0 mm 1 m/S 702 mmHg 69%
19:00 +21°C° 0 mm 2 m/S 701 mmHg 76%
20:00 +20°C° 0 mm 2 m/S 701 mmHg 79%
21:00 +19°C° 0 mm 2 m/S 701 mmHg 82%
22:00 +19°C° 0 mm 1 m/S 701 mmHg 86%
23:00 +19°C° 0 mm 1 m/S 701 mmHg 86%
Mehr zeigen